Showing default

SPAINSAT NG1, 62852

Orbit data source: Space-Track

SPAINSAT NG1, 62852 is a payload satellite owned by Hisdesat (ES) in GEO that was launched on Thu, 30 Jan 2025 UTC via an FALCON 9 launch vehicle from the Air Force Eastern Test Range (AFETR). Payload-class satellites include a variety of spacecraft equipped with specific instruments for various scientific and technological missions. These include communications satellites like Starlink; space stations such as the ISS; scientific satellites like the Hubble; Earth observation satellites from companies like Planet Labs, Umbra, and HawkEye 360; GPS; miniature CubeSats for education and research; and military/defense satellites.

Not visible in the next 10 days
Identifier
62852, 2025-021A
Orbit
GEO
Last TLE update
1 day ago
Origin
Manufacturer
ADST/ADSUK
Mission
Operational Defense Communications
Bus & Motor
EUROSTAR NEO, PPS-5000
Mass
6,100 kg wet, ~5,500 kg dry
Launch date (UTC)
2025-01-30 (5 months ago)
Launch vehicle
FALCON 9
Launch site
Air Force Eastern Test Range (AFETR)
Object type
Payload
Rocket body
Debris
Shape & HBR
Box + 2 Pan, 42.8 m
Radar Cross Section
50.755 m², Large (>1 m²)

Expand to show TLE details & history

TLE from 1 day ago
0 SPAINSAT NG1
1 62852U 25021A   25182.78847740  .00000087  00000-0  00000-0 0  9991
2 62852   0.1848 323.4925 0168605 203.2622  70.9910  0.99851960   460
Epoch: 2025-07-01T18:55Z
TLE epoch observation values (Epoch: 2025-07-01T18:55:24.447Z)
Latitude
-0.19576°
Longitude
35.66206°
Altitude
35,685.654 km
Speed
3.086 km/s
True Right ascension
15h 58m 22s
True Declination
0° 11' 44"
Sunlit
Object was in daylight at epoch
Visualization orbit readout
Latitude
-0.18509°
Longitude
51.98044°
Altitude
35,883.446 km
Speed
3.072 km/s
Apparent Right ascension
17h 19m 32s
Apparent Declination
-5° 12' 58"
Sunlit
Object is in daylight
Visualization observer readout
Local Sidereal Time
07:46:29
Azimuth
53.401° ENE
Elevation
-42.101°
Doppler factor
1
Orbital elements
Apogee altitude
36,618.695 km
Perigee altitude
35,192.84 km
Semi-major axis
42,283.904 km
Eccentricity
0.01686
Inclination
0.1848°
RAAN
323.4925°
Arg. of periapsis
203.2622°
True anomaly
Unknown
Mean anomaly
70.991°
Eccentric anomaly
Unknown
Mean motion
0.24962 °/min
Orbital period
1,442.19 mins
BSTAR
0
Loading historical data...
62852 neighbors
Loading maneuver chart data...
Loading SW <> Apogee altitude chart data...
Loading historical data...
Loading historical data...
Loading historical data...
Loading historical data...
Loading historical data...
Loading historical data...
Loading historical data...
Other satellites on launch #21 in the year 2025 (2025-01-30 UTC)

SPAINSAT NG1 Visibility

Observer location: undefined°, undefined°

SPAINSAT NG1 is likely not visible in the next few days
Span
Click to sort rows by Start time (UTC) header in descending order
Start Az.
Max El. time (UTC)
Max El. Az.
Max El.
End time (UTC)
End Az.
|